Вернуться в каталог

SL-3 R/B

АктивенPO
NORAD 8800·ROCKET BODY·🇷🇺 Russia

Запущен Apr 7, 1976 с Plesetsk Cosmodrome

Loading…

Ближайшие Пролёты (ближайшие 24 часа)

TLE

СвежийSource: Space-Track

Эпоха: Sep 14, 2026, 04:17 UTC

1 08800U 76032B   26257.17875173 -.00000037  00000-0 -26297-4 0  9997
2 08800  81.2526 171.9545 0093874 344.9094  14.9279 14.10677613593823

Отслеживайте SL-3 R/B в реальном времени с AllMySat

Download on the App Store